User: anonymous   Login
Location: Unspecified
(0.0000°N, 0.0000°E)
Time: 09:23:31
(UTC+00:00)
Language:

CP3 - Orbit

View from above orbital plane
View from above orbital plane
View from above satellite
View from above satellite

Ground track
Ground track

The orbit is defined by the following mean orbital elements,

1 31129U          26103.88265308 +.00000000 +00000-0 +15471-3 0 00002
2 31129  98.4501  81.8218 0080621 261.4229  97.7833 14.65758933    04
Epoch (UTC): 13 April 2026 21:11:01
Eccentricity: 0.0080621
inclination: 98.4501°
perigee height: 618 km
apogee height: 732 km
right ascension of ascending node: 81.8218°
argument of perigee: 261.4229°
revolutions per day: 14.65758933
mean anomaly at epoch: 97.7833°

The dashed part of the orbit path shows where the satellite is in the earth's shadow,  

DLR